TimeMDT,TemperatureF,Dew PointF,Humidity,Sea Level PressureIn,VisibilityMPH,Wind Direction,Wind SpeedMPH,Gust SpeedMPH,PrecipitationIn,Events,Conditions,WindDirDegrees,DateUTC
12:15 AM,55.4,8.6,15,30.34,10.0,Calm,Calm,-,N/A,,Clear,0,2013-05-14 06:15:00
12:35 AM,53.6,10.4,18,30.34,10.0,SW,3.5,-,N/A,,Clear,220,2013-05-14 06:35:00
12:55 AM,53.6,10.4,18,30.34,10.0,SW,4.6,-,N/A,,Clear,220,2013-05-14 06:55:00
1:15 AM,53.6,10.4,18,30.33,10.0,WSW,4.6,-,N/A,,Clear,240,2013-05-14 07:15:00
1:35 AM,51.8,10.4,19,30.32,10.0,SW,3.5,-,N/A,,Clear,230,2013-05-14 07:35:00
1:55 AM,53.6,14.0,21,30.31,10.0,SW,3.5,-,N/A,,Clear,220,2013-05-14 07:55:00
2:15 AM,53.6,15.8,22,30.31,10.0,Calm,Calm,-,N/A,,Clear,0,2013-05-14 08:15:00
2:35 AM,53.6,15.8,22,30.31,10.0,Calm,Calm,-,N/A,,Clear,0,2013-05-14 08:35:00
2:55 AM,53.6,17.6,24,30.30,10.0,Calm,Calm,-,N/A,,Clear,0,2013-05-14 08:55:00
3:15 AM,50.0,15.8,26,30.30,10.0,SSW,4.6,-,N/A,,Clear,200,2013-05-14 09:15:00
3:35 AM,50.0,17.6,28,30.30,10.0,Calm,Calm,-,N/A,,Clear,0,2013-05-14 09:35:00
3:55 AM,48.2,17.6,30,30.30,10.0,Calm,Calm,-,N/A,,Clear,0,2013-05-14 09:55:00
4:15 AM,48.2,17.6,30,30.30,10.0,Calm,Calm,-,N/A,,Clear,0,2013-05-14 10:15:00
4:35 AM,48.2,21.2,34,30.29,10.0,SSW,3.5,-,N/A,,Clear,200,2013-05-14 10:35:00
4:55 AM,48.2,21.2,34,30.29,10.0,Calm,Calm,-,N/A,,Clear,0,2013-05-14 10:55:00
5:15 AM,48.2,23.0,37,30.29,10.0,West,5.8,-,N/A,,Clear,270,2013-05-14 11:15:00
5:35 AM,48.2,23.0,37,30.29,10.0,WNW,4.6,-,N/A,,Clear,290,2013-05-14 11:35:00
5:55 AM,46.4,19.4,34,30.29,10.0,West,6.9,-,N/A,,Clear,280,2013-05-14 11:55:00
6:15 AM,46.4,15.8,29,30.28,10.0,WNW,4.6,-,N/A,,Clear,290,2013-05-14 12:15:00
6:35 AM,48.2,17.6,30,30.28,10.0,WNW,3.5,-,N/A,,Clear,290,2013-05-14 12:35:00
6:55 AM,50.0,19.4,30,30.28,10.0,West,3.5,-,N/A,,Clear,280,2013-05-14 12:55:00
7:15 AM,50.0,19.4,30,30.28,10.0,Calm,Calm,-,N/A,,Clear,0,2013-05-14 13:15:00
7:35 AM,55.4,23.0,29,30.28,10.0,SW,4.6,-,N/A,,Clear,230,2013-05-14 13:35:00
7:55 AM,57.2,23.0,27,30.29,10.0,Calm,Calm,-,N/A,,Clear,0,2013-05-14 13:55:00
8:15 AM,59.0,21.2,23,30.29,10.0,NNE,3.5,-,N/A,,Clear,20,2013-05-14 14:15:00
8:35 AM,60.8,21.2,22,30.29,10.0,NE,5.8,-,N/A,,Clear,40,2013-05-14 14:35:00
8:55 AM,60.8,23.0,23,30.29,10.0,NE,8.1,-,N/A,,Clear,40,2013-05-14 14:55:00
9:15 AM,62.6,23.0,22,30.29,10.0,NE,6.9,-,N/A,,Clear,50,2013-05-14 15:15:00
9:35 AM,64.4,23.0,21,30.28,10.0,NNE,5.8,-,N/A,,Clear,30,2013-05-14 15:35:00
9:55 AM,66.2,24.8,21,30.28,10.0,NNW,6.9,-,N/A,,Clear,330,2013-05-14 15:55:00
10:15 AM,66.2,24.8,21,30.28,10.0,WNW,5.8,-,N/A,,Clear,290,2013-05-14 16:15:00
10:35 AM,68.0,23.0,18,30.27,10.0,NW,6.9,16.1,N/A,,Clear,310,2013-05-14 16:35:00
10:55 AM,68.0,23.0,18,30.26,10.0,NNE,8.1,-,N/A,,Clear,20,2013-05-14 16:55:00
11:15 AM,69.8,23.0,17,30.26,10.0,North,10.4,17.3,N/A,,Clear,10,2013-05-14 17:15:00
11:35 AM,69.8,23.0,17,30.25,10.0,NW,13.8,20.7,N/A,,Clear,310,2013-05-14 17:35:00
11:55 AM,71.6,23.0,16,30.24,10.0,NNE,5.8,-,N/A,,Clear,20,2013-05-14 17:55:00
12:15 PM,71.6,23.0,16,30.23,10.0,NNE,15.0,20.7,N/A,,Clear,30,2013-05-14 18:15:00
12:35 PM,71.6,23.0,16,30.23,10.0,NNW,9.2,-,N/A,,Clear,340,2013-05-14 18:35:00
12:55 PM,68.0,23.0,18,30.22,10.0,Calm,Calm,-,N/A,,Partly Cloudy,0,2013-05-14 18:55:00
1:15 PM,71.6,24.8,17,30.21,10.0,WNW,4.6,-,N/A,,Clear,290,2013-05-14 19:15:00
1:35 PM,69.8,23.0,17,30.20,10.0,NNE,8.1,16.1,N/A,,Mostly Cloudy,20,2013-05-14 19:35:00
1:55 PM,68.0,26.6,21,30.20,10.0,WSW,8.1,16.1,N/A,,Mostly Cloudy,240,2013-05-14 19:55:00
2:15 PM,69.8,26.6,20,30.19,10.0,WSW,5.8,-,N/A,,Scattered Clouds,240,2013-05-14 20:15:00
2:35 PM,71.6,26.6,19,30.18,10.0,SSW,4.6,-,N/A,,Partly Cloudy,210,2013-05-14 20:35:00
2:55 PM,71.6,26.6,19,30.17,10.0,West,15.0,-,N/A,,Partly Cloudy,270,2013-05-14 20:55:00
3:15 PM,66.2,28.4,24,30.17,9.0,SSE,11.5,20.7,N/A,Rain,Light Rain,150,2013-05-14 21:15:00
3:35 PM,71.6,26.6,19,30.16,10.0,WSW,17.3,-,N/A,,Clear,240,2013-05-14 21:35:00
3:55 PM,68.0,26.6,21,30.16,10.0,West,8.1,-,N/A,,Clear,260,2013-05-14 21:55:00
4:15 PM,68.0,26.6,21,30.16,10.0,WSW,17.3,23.0,N/A,,Partly Cloudy,240,2013-05-14 22:15:00
4:35 PM,68.0,26.6,21,30.16,10.0,WNW,4.6,-,N/A,,Partly Cloudy,300,2013-05-14 22:35:00
4:55 PM,69.8,24.8,18,30.14,10.0,West,8.1,-,N/A,,Clear,270,2013-05-14 22:55:00
5:15 PM,71.6,24.8,17,30.14,10.0,WSW,4.6,-,N/A,,Clear,250,2013-05-14 23:15:00
5:35 PM,71.6,24.8,17,30.13,10.0,SW,10.4,-,N/A,,Clear,230,2013-05-14 23:35:00
5:55 PM,71.6,24.8,17,30.13,10.0,WSW,10.4,-,N/A,,Clear,240,2013-05-14 23:55:00
6:15 PM,71.6,24.8,17,30.12,10.0,West,12.7,18.4,N/A,,Clear,270,2013-05-15 00:15:00
6:35 PM,71.6,23.0,16,30.12,10.0,West,10.4,16.1,N/A,,Clear,260,2013-05-15 00:35:00
6:55 PM,71.6,23.0,16,30.11,10.0,WSW,8.1,-,N/A,,Clear,250,2013-05-15 00:55:00
7:15 PM,68.0,24.8,20,30.11,10.0,WSW,12.7,-,N/A,,Clear,240,2013-05-15 01:15:00
7:35 PM,66.2,24.8,21,30.12,10.0,WSW,12.7,-,N/A,,Clear,240,2013-05-15 01:35:00
7:55 PM,64.4,23.0,21,30.12,10.0,WSW,10.4,-,N/A,,Clear,240,2013-05-15 01:55:00
8:15 PM,62.6,23.0,22,30.12,10.0,WSW,11.5,-,N/A,,Clear,240,2013-05-15 02:15:00
8:35 PM,60.8,23.0,23,30.12,10.0,WSW,12.7,-,N/A,,Clear,240,2013-05-15 02:35:00
8:55 PM,60.8,23.0,23,30.12,10.0,SW,12.7,-,N/A,,Clear,230,2013-05-15 02:55:00
9:15 PM,60.8,23.0,23,30.12,10.0,SW,12.7,-,N/A,,Clear,230,2013-05-15 03:15:00
9:35 PM,60.8,23.0,23,30.13,10.0,SW,11.5,-,N/A,,Clear,220,2013-05-15 03:35:00
10:15 PM,60.8,24.8,25,30.14,10.0,West,5.8,16.1,N/A,,Scattered Clouds,270,2013-05-15 04:15:00
10:35 PM,60.8,24.8,25,30.13,10.0,WSW,10.4,16.1,N/A,,Partly Cloudy,240,2013-05-15 04:35:00
10:55 PM,60.8,24.8,25,30.14,10.0,WNW,8.1,-,N/A,,Clear,300,2013-05-15 04:55:00
11:15 PM,59.0,24.8,27,30.15,10.0,WNW,5.8,-,N/A,,Clear,290,2013-05-15 05:15:00
11:35 PM,59.0,24.8,27,30.15,10.0,WSW,10.4,-,N/A,,Clear,250,2013-05-15 05:35:00
11:55 PM,60.8,26.6,27,30.15,10.0,West,16.1,23.0,N/A,,Clear,260,2013-05-15 05:55:00